W3MSB Weather Reports


time (UTC)temp
C
wind
direction
speed
KPH
gust
KPH
rain 1hr
cm
rain 24hr
cm
rain mn
cm
humidity
%
barometer
mb
20260504100337 0 201 0.0 4.8 0.00 0.00 0.00 86 1013.0
20260504100236 0 201 0.0 4.8 0.00 0.00 0.00 86 1013.0
20260504100135 0 201 0.0 4.8 0.00 0.00 0.00 86 1013.0
20260504082005 1 220 0.0 3.2 0.00 0.00 0.00 87 1013.1
20260504081859 1 220 0.0 1.6 0.00 0.00 0.00 87 1013.2
20260504081759 1 220 0.0 0.0 0.00 0.00 0.00 87 1013.2
20260504081731 1 220 0.0 0.0 0.00 0.00 0.00 87 1013.2
20260504081721 1 220 0.0 0.0 0.00 0.00 0.00 87 1013.2
20260504081603 1 220 0.0 0.0 0.00 0.00 0.00 87 1013.2
20260504081347 1 220 0.0 0.0 0.00 0.00 0.00 87 1013.2
20260504081240 1 220 0.0 3.2 0.00 0.00 0.00 87 1013.2
20260504081216 1 220 0.0 3.2 0.00 0.00 0.00 87 1013.2
20260504081207 1 220 0.0 3.2 0.00 0.00 0.00 87 1013.2
20260504081047 1 220 0.0 3.2 0.00 0.00 0.00 87 1013.2
20260504080826 1 220 0.0 3.2 0.00 0.00 0.00 87 1013.2
20260504080727 1 220 0.0 3.2 0.00 0.00 0.00 87 1013.2
20260504080643 1 220 0.0 3.2 0.00 0.00 0.00 87 1013.2
20260504080635 1 220 0.0 3.2 0.00 0.00 0.00 87 1013.2
20260504080414 1 220 0.0 3.2 0.00 0.00 0.00 87 1013.2
20260504080315 1 220 0.0 3.2 0.00 0.00 0.00 87 1013.1
20260504080209 1 220 1.6 3.2 0.00 0.00 0.00 87 1013.1
20260504080109 1 220 1.6 3.2 0.00 0.00 0.00 87 1013.1
20260504070321 2 220 3.2 4.8 0.00 0.00 0.00 87 1013.1
20260504070221 2 220 3.2 4.8 0.00 0.00 0.00 87 1013.1
20260504070115 2 220 3.2 4.8 0.00 0.00 0.00 87 1013.1
20260504060242 2 229 1.6 4.8 0.00 0.00 0.00 83 1013.0
20260504050751 4 230 4.8 8.0 0.00 0.00 0.00 78 1013.1
20260504050707 4 230 4.8 8.0 0.00 0.00 0.00 78 1013.1
20260504050701 4 230 4.8 8.0 0.00 0.00 0.00 78 1013.1
20260504050445 5 230 4.8 8.0 0.00 0.00 0.00 78 1013.2
20260504050339 5 229 4.8 8.0 0.00 0.00 0.00 78 1013.2
20260504050239 5 240 3.2 8.0 0.00 0.00 0.00 78 1013.1
20260504050133 5 240 3.2 8.0 0.00 0.00 0.00 78 1013.2
20260504045926 5 240 3.2 8.0 0.00 0.00 0.00 78 1013.2
20260504045906 5 240 3.2 8.0 0.00 0.00 0.00 77 1013.2
20260504045901 5 242 3.2 6.4 0.00 0.00 0.00 76 1013.2
20260504045851 5 240 3.2 8.0 0.00 0.00 0.00 77 1013.2
20260504045514 5 242 3.2 6.4 0.00 0.00 0.00 76 1013.2
20260504045415 5 242 3.2 6.4 0.00 0.00 0.00 76 1013.2
20260504045309 5 242 3.2 6.4 0.00 0.00 0.00 76 1013.2
20260504045227 5 242 3.2 6.4 0.00 0.00 0.00 75 1013.2
20260504045219 5 242 3.2 6.4 0.00 0.00 0.00 76 1013.2
20260504045003 5 242 3.2 6.4 0.00 0.00 0.00 75 1013.1
20260504044856 5 242 4.8 6.4 0.00 0.00 0.00 74 1013.1
20260504044757 5 242 4.8 6.4 0.00 0.00 0.00 74 1013.1
20260504044650 5 242 4.8 6.4 0.00 0.00 0.00 74 1013.2
20260504044551 5 242 4.8 6.4 0.00 0.00 0.00 74 1013.2
20260504044445 5 242 4.8 6.4 0.00 0.00 0.00 74 1013.2
20260504044345 5 242 4.8 6.4 0.00 0.00 0.00 73 1013.2
20260504044239 5 242 4.8 6.4 0.00 0.00 0.00 73 1013.2
20260504044139 5 242 4.8 6.4 0.00 0.00 0.00 73 1013.2
20260504044056 5 242 4.8 6.4 0.00 0.00 0.00 73 1013.2
20260504044047 5 242 4.8 6.4 0.00 0.00 0.00 73 1013.3
20260504043828 6 242 3.2 6.4 0.00 0.00 0.00 72 1013.2
20260504043727 6 242 3.2 6.4 0.00 0.00 0.00 72 1013.2
20260504043620 6 242 3.2 6.4 0.00 0.00 0.00 72 1013.1
20260504043521 6 242 3.2 6.4 0.00 0.00 0.00 72 1013.2
20260504043416 6 242 3.2 6.4 0.00 0.00 0.00 72 1013.1
20260504043315 6 242 3.2 6.4 0.00 0.00 0.00 72 1013.1
20260504043210 6 242 3.2 6.4 0.00 0.00 0.00 72 1013.1
20260504043126 6 242 1.6 4.8 0.00 0.00 0.00 73 1013.1
20260504043119 6 242 1.6 4.8 0.00 0.00 0.00 73 1013.1
20260504042903 6 242 1.6 4.8 0.00 0.00 0.00 73 1013.1
20260504042757 6 242 1.6 3.2 0.00 0.00 0.00 73 1013.1
20260504042656 6 242 1.6 9.7 0.00 0.00 0.00 73 1013.1
20260504042551 6 242 1.6 9.7 0.00 0.00 0.00 73 1013.1
20260504042451 6 242 1.6 9.7 0.00 0.00 0.00 73 1013.1
20260504042345 6 242 1.6 9.7 0.00 0.00 0.00 72 1013.1
20260504042245 6 242 1.6 9.7 0.00 0.00 0.00 71 1013.1
20260504042140 6 242 1.6 9.7 0.00 0.00 0.00 70 1013.1
20260504042056 6 242 3.2 9.7 0.00 0.00 0.00 69 1013.1
20260504042049 6 242 1.6 9.7 0.00 0.00 0.00 69 1013.1
20260504041832 6 242 3.2 9.7 0.00 0.00 0.00 68 1013.0
20260504041749 6 242 3.2 9.7 0.00 0.00 0.00 67 1013.0
20260504041742 6 242 3.2 9.7 0.00 0.00 0.00 67 1013.0
20260504041520 6 242 4.8 9.7 0.00 0.00 0.00 67 1013.0
20260504041421 6 242 4.8 9.7 0.00 0.00 0.00 67 1013.0
20260504041315 6 242 4.8 9.7 0.00 0.00 0.00 67 1013.1
20260504041215 6 243 4.8 9.7 0.00 0.00 0.00 67 1013.1
20260504041109 6 243 4.8 9.7 0.00 0.00 0.00 66 1013.0
20260504041008 6 244 4.8 9.7 0.00 0.00 0.00 66 1013.1
20260504040903 6 244 4.8 11.3 0.00 0.00 0.00 65 1013.1
20260504040802 6 244 6.4 11.3 0.00 0.00 0.00 65 1013.1
20260504040656 6 219 6.4 11.3 0.00 0.00 0.00 65 1013.1
20260504040556 6 213 6.4 11.3 0.00 0.00 0.00 65 1013.1
20260504040449 6 213 6.4 11.3 0.00 0.00 0.00 65 1013.1
20260504040350 7 212 6.4 11.3 0.00 0.00 0.00 65 1013.1
20260504040245 7 212 6.4 11.3 0.00 0.00 0.00 65 1013.1
20260504040144 7 211 6.4 11.3 0.00 0.00 0.00 65 1013.1
20260504040039 7 210 6.4 11.3 0.00 0.00 0.00 65 1013.1
20260504035938 7 209 6.4 11.3 0.00 0.00 0.00 65 1013.1
20260504035832 7 211 6.4 11.3 0.00 0.00 0.00 65 1013.1
20260504035732 7 211 6.4 11.3 0.00 0.00 0.00 65 1013.1
20260504035626 7 211 6.4 11.3 0.00 0.00 0.00 65 1013.0
20260504035526 7 212 6.4 11.3 0.00 0.00 0.00 65 1013.1
20260504035421 7 211 6.4 11.3 0.00 0.00 0.00 65 1013.1
20260504035320 7 209 6.4 11.3 0.00 0.00 0.00 65 1013.1
20260504035215 7 209 6.4 11.3 0.00 0.00 0.00 65 1013.0
20260504035114 7 209 6.4 11.3 0.00 0.00 0.00 66 1013.0
20260504035009 7 208 6.4 11.3 0.00 0.00 0.00 66 1013.0
20260504034908 7 209 6.4 9.7 0.00 0.00 0.00 66 1013.0
20260504034803 7 198 4.8 9.7 0.00 0.00 0.00 66 1013.0
20260504034702 7 198 4.8 9.7 0.00 0.00 0.00 67 1013.0
20260504034556 7 194 4.8 9.7 0.00 0.00 0.00 67 1013.0
20260504034456 7 195 4.8 9.7 0.00 0.00 0.00 67 1013.0
20260504034350 7 195 4.8 9.7 0.00 0.00 0.00 67 1013.0
20260504034250 7 196 4.8 9.7 0.00 0.00 0.00 67 1012.9
20260504034145 7 196 6.4 9.7 0.00 0.00 0.00 67 1013.0
20260504034043 7 196 6.4 9.7 0.00 0.00 0.00 68 1012.9
20260504033938 7 196 6.4 9.7 0.00 0.00 0.00 69 1012.9
20260504033854 7 197 6.4 9.7 0.00 0.00 0.00 69 1012.9
20260504033848 7 197 6.4 9.7 0.00 0.00 0.00 69 1012.9
20260504033632 7 198 6.4 9.7 0.00 0.00 0.00 69 1012.9
20260504033527 7 198 6.4 9.7 0.00 0.00 0.00 69 1012.9
20260504033427 7 198 6.4 9.7 0.00 0.00 0.00 68 1012.9
20260504033342 7 198 6.4 9.7 0.00 0.00 0.00 67 1012.9
20260504033335 7 198 6.4 9.7 0.00 0.00 0.00 68 1012.9
20260504033114 7 200 6.4 9.7 0.00 0.00 0.00 66 1012.9
20260504033014 7 200 4.8 9.7 0.00 0.00 0.00 65 1012.9
20260504032908 7 200 4.8 8.0 0.00 0.00 0.00 65 1012.9
20260504032826 7 199 4.8 11.3 0.00 0.00 0.00 65 1012.9
20260504032818 7 200 4.8 11.3 0.00 0.00 0.00 65 1012.9
20260504032602 7 199 4.8 11.3 0.00 0.00 0.00 65 1012.9
20260504032457 7 198 4.8 11.3 0.00 0.00 0.00 65 1012.9
20260504032355 7 198 6.4 11.3 0.00 0.00 0.00 65 1012.9
20260504032250 7 198 6.4 11.3 0.00 0.00 0.00 65 1012.9
20260504032150 7 198 6.4 11.3 0.00 0.00 0.00 66 1012.9
20260504032123 7 200 6.4 11.3 0.00 0.00 0.00 66 1012.9
20260504032118 7 200 6.4 11.3 0.00 0.00 0.00 67 1012.9
20260504032109 7 199 6.4 11.3 0.00 0.00 0.00 66 1012.9
20260504031738 7 198 6.4 11.3 0.00 0.00 0.00 67 1012.8
20260504031632 7 198 6.4 11.3 0.00 0.00 0.00 68 1012.8
20260504031532 7 199 6.4 11.3 0.00 0.00 0.00 68 1012.8
20260504031427 6 200 6.4 11.3 0.00 0.00 0.00 68 1012.8
20260504031325 6 206 6.4 11.3 0.00 0.00 0.00 69 1012.8
20260504031220 6 206 6.4 11.3 0.00 0.00 0.00 69 1012.8
20260504031120 6 207 6.4 11.3 0.00 0.00 0.00 68 1012.8
20260504031037 6 219 6.4 11.3 0.00 0.00 0.00 67 1012.7
20260504031029 6 211 6.4 11.3 0.00 0.00 0.00 67 1012.7
20260504030807 6 227 6.4 11.3 0.00 0.00 0.00 68 1012.7
20260504030708 6 227 6.4 11.3 0.00 0.00 0.00 68 1012.7
20260504030603 6 227 6.4 9.7 0.00 0.00 0.00 68 1012.7
20260504030502 6 229 6.4 9.7 0.00 0.00 0.00 68 1012.7
20260504030356 6 229 6.4 9.7 0.00 0.00 0.00 69 1012.7
20260504030256 6 227 6.4 9.7 0.00 0.00 0.00 69 1012.7
20260504030150 6 225 6.4 9.7 0.00 0.00 0.00 69 1012.7
20260504030050 6 223 6.4 9.7 0.00 0.00 0.00 69 1012.7
20260504030031 6 222 6.4 9.7 0.00 0.00 0.00 69 1012.6
20260504030026 6 215 6.4 9.7 0.00 0.00 0.00 70 1012.7
20260504030017 6 222 6.4 9.7 0.00 0.00 0.00 69 1012.7
20260504025644 6 214 6.4 9.7 0.00 0.00 0.00 70 1012.7
20260504025544 6 215 6.4 9.7 0.00 0.00 0.00 71 1012.7
20260504025442 6 204 6.4 9.7 0.00 0.00 0.00 71 1012.7
20260504025342 6 202 6.4 9.7 0.00 0.00 0.00 71 1012.7
20260504025239 6 204 6.4 9.7 0.00 0.00 0.00 71 1012.7
20260504025140 6 205 6.4 9.7 0.00 0.00 0.00 71 1012.8
20260504025131 6 206 6.4 9.7 0.00 0.00 0.00 70 1012.8
20260504025118 6 205 6.4 9.7 0.00 0.00 0.00 71 1012.7
20260504024959 6 205 6.4 9.7 0.00 0.00 0.00 70 1012.7
20260504024838 6 205 6.4 9.7 0.00 0.00 0.00 70 1012.7
20260504024657 6 209 4.8 9.7 0.00 0.00 0.00 69 1012.7
20260504024652 6 209 4.8 8.0 0.00 0.00 0.00 69 1012.7
20260504024643 6 207 6.4 9.7 0.00 0.00 0.00 69 1012.7
20260504024312 6 210 4.8 8.0 0.00 0.00 0.00 69 1012.7
20260504024205 6 211 4.8 8.0 0.00 0.00 0.00 70 1012.7
20260504024106 6 211 4.8 8.0 0.00 0.00 0.00 70 1012.7
20260504024000 6 213 4.8 8.0 0.00 0.00 0.00 70 1012.8
20260504023900 6 213 4.8 8.0 0.00 0.00 0.00 70 1012.7
20260504023756 6 213 3.2 8.0 0.00 0.00 0.00 69 1012.7
20260504023654 6 213 3.2 6.4 0.00 0.00 0.00 69 1012.7
20260504023548 7 214 3.2 6.4 0.00 0.00 0.00 69 1012.7
20260504023448 7 214 3.2 6.4 0.00 0.00 0.00 69 1012.7
20260504023342 7 214 3.2 6.4 0.00 0.00 0.00 69 1012.7
20260504023241 7 214 3.2 8.0 0.00 0.00 0.00 68 1012.8
20260504023136 7 215 3.2 8.0 0.00 0.00 0.00 68 1012.7
20260504023053 7 215 3.2 8.0 0.00 0.00 0.00 68 1012.8
20260504023049 7 215 3.2 8.0 0.00 0.00 0.00 68 1012.7
20260504023043 7 215 3.2 8.0 0.00 0.00 0.00 68 1012.8
20260504023027 7 215 3.2 8.0 0.00 0.00 0.00 68 1012.8
20260504022757 7 215 3.2 8.0 0.00 0.00 0.00 67 1012.7
20260504022747 7 215 3.2 8.0 0.00 0.00 0.00 67 1012.7
20260504022418 7 215 3.2 8.0 0.00 0.00 0.00 67 1012.7
20260504022312 7 215 4.8 8.0 0.00 0.00 0.00 66 1012.7
20260504022212 7 215 4.8 8.0 0.00 0.00 0.00 66 1012.7
20260504022106 7 215 4.8 8.0 0.00 0.00 0.00 65 1012.7
20260504022006 7 215 4.8 8.0 0.00 0.00 0.00 66 1012.7
20260504021900 7 215 4.8 8.0 0.00 0.00 0.00 67 1012.7
20260504021800 7 215 4.8 9.7 0.00 0.00 0.00 68 1012.8
20260504021655 7 215 4.8 9.7 0.00 0.00 0.00 68 1012.8
20260504021610 7 215 4.8 9.7 0.00 0.00 0.00 67 1012.8
20260504021603 7 215 4.8 9.7 0.00 0.00 0.00 68 1012.7
20260504021348 7 215 4.8 9.7 0.00 0.00 0.00 66 1012.7
20260504021242 7 215 4.8 9.7 0.00 0.00 0.00 63 1012.7
20260504021142 7 217 4.8 9.7 0.00 0.00 0.00 61 1012.7
20260504021036 7 217 4.8 9.7 0.00 0.00 0.00 60 1012.7
20260504020936 7 217 4.8 9.7 0.00 0.00 0.00 60 1012.6
20260504020832 8 217 4.8 9.7 0.00 0.00 0.00 60 1012.7
20260504020730 8 217 4.8 9.7 0.00 0.00 0.00 59 1012.7
20260504020624 8 217 6.4 9.7 0.00 0.00 0.00 59 1012.7
20260504020524 8 217 6.4 9.7 0.00 0.00 0.00 60 1012.8
20260504020418 8 217 6.4 9.7 0.00 0.00 0.00 60 1012.8
20260504020318 8 217 6.4 9.7 0.00 0.00 0.00 60 1012.8
20260504020212 8 217 6.4 9.7 0.00 0.00 0.00 60 1012.8
20260504020112 8 217 6.4 9.7 0.00 0.00 0.00 61 1012.8
20260504020006 8 217 6.4 9.7 0.00 0.00 0.00 61 1012.8
20260504015906 8 218 6.4 9.7 0.00 0.00 0.00 62 1012.8
20260504015759 8 221 6.4 9.7 0.00 0.00 0.00 63 1012.7
20260504015700 8 223 4.8 8.0 0.00 0.00 0.00 62 1012.8
20260504015553 8 226 4.8 8.0 0.00 0.00 0.00 60 1012.7
20260504015454 8 227 4.8 8.0 0.00 0.00 0.00 60 1012.7
20260504015446 8 228 4.8 8.0 0.00 0.00 0.00 59 1012.7
20260504015442 8 227 4.8 8.0 0.00 0.00 0.00 59 1012.7
20260504015429 8 227 4.8 8.0 0.00 0.00 0.00 60 1012.7
20260504015153 8 227 4.8 8.0 0.00 0.00 0.00 59 1012.7
20260504015011 8 229 4.8 8.0 0.00 0.00 0.00 59 1012.7
20260504015001 8 228 4.8 8.0 0.00 0.00 0.00 59 1012.7
20260504014842 8 229 4.8 8.0 0.00 0.00 0.00 59 1012.7
20260504014644 8 229 4.8 8.0 0.00 0.00 0.00 59 1012.7
20260504014636 8 229 4.8 8.0 0.00 0.00 0.00 59 1012.7
20260504014420 8 229 4.8 8.0 0.00 0.00 0.00 60 1012.7
20260504014315 8 229 4.8 8.0 0.00 0.00 0.00 60 1012.6
20260504014213 8 229 4.8 6.4 0.00 0.00 0.00 59 1012.7
20260504014128 8 229 4.8 6.4 0.00 0.00 0.00 58 1012.6
20260504014122 8 229 4.8 6.4 0.00 0.00 0.00 59 1012.6
20260504013902 8 229 4.8 8.0 0.00 0.00 0.00 58 1012.6
20260504013802 8 229 4.8 8.0 0.00 0.00 0.00 58 1012.6
20260504013655 8 229 4.8 8.0 0.00 0.00 0.00 58 1012.5
20260504013613 8 229 4.8 8.0 0.00 0.00 0.00 57 1012.5
20260504013606 8 229 4.8 8.0 0.00 0.00 0.00 58 1012.5
20260504013405 8 230 4.8 8.0 0.00 0.00 0.00 56 1012.5
20260504013359 8 229 4.8 8.0 0.00 0.00 0.00 57 1012.5
20260504013144 8 230 4.8 8.0 0.00 0.00 0.00 56 1012.5
20260504013038 8 230 4.8 8.0 0.00 0.00 0.00 56 1012.5
20260504012938 8 230 4.8 8.0 0.00 0.00 0.00 55 1012.5
20260504012832 9 230 4.8 8.0 0.00 0.00 0.00 55 1012.5
20260504012732 9 230 4.8 8.0 0.00 0.00 0.00 55 1012.5
20260504012626 9 230 4.8 8.0 0.00 0.00 0.00 54 1012.5
20260504012526 9 230 4.8 8.0 0.00 0.00 0.00 54 1012.5
20260504012420 9 230 4.8 8.0 0.00 0.00 0.00 53 1012.5
20260504012320 9 230 4.8 8.0 0.00 0.00 0.00 53 1012.4
20260504012216 9 230 4.8 8.0 0.00 0.00 0.00 52 1012.5
20260504012114 9 230 4.8 8.0 0.00 0.00 0.00 52 1012.4
20260504012009 9 230 4.8 8.0 0.00 0.00 0.00 52 1012.5
20260504011908 9 232 4.8 8.0 0.00 0.00 0.00 52 1012.4
20260504011802 9 232 4.8 8.0 0.00 0.00 0.00 51 1012.4
20260504011720 9 232 4.8 8.0 0.00 0.00 0.00 51 1012.4
20260504011713 9 232 4.8 8.0 0.00 0.00 0.00 51 1012.4
20260504011455 9 229 4.8 8.0 0.00 0.00 0.00 51 1012.4
20260504011350 9 229 4.8 8.0 0.00 0.00 0.00 51 1012.4
20260504011250 9 229 4.8 8.0 0.00 0.00 0.00 51 1012.4
20260504011207 9 226 4.8 8.0 0.00 0.00 0.00 51 1012.4
20260504011200 9 227 4.8 8.0 0.00 0.00 0.00 51 1012.4
20260504010938 9 225 4.8 9.7 0.00 0.00 0.00 50 1012.4
20260504010838 9 225 4.8 9.7 0.00 0.00 0.00 50 1012.3
20260504010732 9 225 4.8 9.7 0.00 0.00 0.00 50 1012.3
20260504010632 10 225 4.8 9.7 0.00 0.00 0.00 50 1012.4
20260504010528 10 225 4.8 9.7 0.00 0.00 0.00 50 1012.3
20260504010444 10 224 4.8 9.7 0.00 0.00 0.00 49 1012.3
20260504010436 10 225 4.8 9.7 0.00 0.00 0.00 49 1012.4
20260504010220 10 224 4.8 9.7 0.00 0.00 0.00 49 1012.3
20260504010114 10 224 4.8 9.7 0.00 0.00 0.00 48 1012.3
20260504010014 10 224 4.8 9.7 0.00 0.00 0.00 48 1012.3
20260504005951 10 223 4.8 9.7 0.00 0.00 0.00 48 1012.4
20260504005946 10 224 4.8 9.7 0.00 0.00 0.00 47 1012.4
20260504005937 10 224 4.8 9.7 0.00 0.00 0.00 48 1012.3
20260504005819 10 223 4.8 9.7 0.00 0.00 0.00 48 1012.4
20260504005813 10 224 4.8 9.7 0.00 0.00 0.00 48 1012.3
20260504005757 10 224 4.8 9.7 0.00 0.00 0.00 48 1012.3
20260504005638 10 224 4.8 9.7 0.00 0.00 0.00 48 1012.3
20260504005150 10 225 4.8 9.7 0.00 0.00 0.00 47 1012.3
20260504005045 11 224 4.8 9.7 0.00 0.00 0.00 47 1012.3
20260504004944 11 225 4.8 9.7 0.00 0.00 0.00 46 1012.3
20260504004838 11 225 4.8 9.7 0.00 0.00 0.00 46 1012.3
20260504004738 11 225 4.8 9.7 0.00 0.00 0.00 46 1012.3
20260504004632 11 242 4.8 9.7 0.00 0.00 0.00 45 1012.3
20260504004532 11 245 4.8 9.7 0.00 0.00 0.00 45 1012.3
20260504004425 11 245 4.8 9.7 0.00 0.00 0.00 45 1012.3
20260504004343 11 246 4.8 9.7 0.00 0.00 0.00 44 1012.3
20260504004336 11 245 4.8 9.7 0.00 0.00 0.00 44 1012.3
20260504004120 11 246 4.8 9.7 0.00 0.00 0.00 44 1012.2
20260504004014 12 246 4.8 9.7 0.00 0.00 0.00 44 1012.2
20260504003913 12 246 4.8 9.7 0.00 0.00 0.00 44 1012.2
20260504003808 12 246 4.8 9.7 0.00 0.00 0.00 44 1012.2
20260504003708 12 246 4.8 9.7 0.00 0.00 0.00 43 1012.2
20260504003604 12 246 4.8 9.7 0.00 0.00 0.00 43 1012.2
20260504003558 12 246 4.8 12.9 0.00 0.00 0.00 43 1012.2
20260504003553 12 246 4.8 12.9 0.00 0.00 0.00 43 1012.1
20260504003542 12 246 4.8 12.9 0.00 0.00 0.00 43 1012.2
20260504003420 12 246 4.8 12.9 0.00 0.00 0.00 43 1012.2
20260504003107 12 248 4.8 12.9 0.00 0.00 0.00 43 1012.1
20260504003100 12 248 4.8 12.9 0.00 0.00 0.00 42 1012.1
20260504002844 12 248 4.8 12.9 0.00 0.00 0.00 43 1012.1
20260504002739 12 249 6.4 12.9 0.00 0.00 0.00 43 1012.1
20260504002638 12 249 6.4 12.9 0.00 0.00 0.00 43 1012.1
20260504002532 13 250 6.4 16.1 0.00 0.00 0.00 42 1012.1
20260504002432 13 247 6.4 16.1 0.00 0.00 0.00 42 1012.1
20260504002326 13 247 6.4 16.1 0.00 0.00 0.00 42 1012.1
20260504002226 13 247 8.0 16.1 0.00 0.00 0.00 42 1012.1
20260504002119 13 249 8.0 16.1 0.00 0.00 0.00 42 1012.1
20260504002021 13 248 8.0 16.1 0.00 0.00 0.00 42 1012.1
20260504001915 13 248 8.0 16.1 0.00 0.00 0.00 42 1012.1
20260504001814 13 249 8.0 16.1 0.00 0.00 0.00 42 1012.1
20260504001709 13 243 8.0 16.1 0.00 0.00 0.00 42 1012.1
20260504001608 13 242 8.0 16.1 0.00 0.00 0.00 41 1012.1
20260504001502 13 258 8.0 17.7 0.00 0.00 0.00 41 1012.0
20260504001402 13 258 8.0 17.7 0.00 0.00 0.00 42 1012.0
20260504001257 13 260 8.0 17.7 0.00 0.00 0.00 41 1012.1
20260504001156 13 228 8.0 17.7 0.00 0.00 0.00 41 1012.0
20260504001051 13 276 8.0 17.7 0.00 0.00 0.00 42 1012.0
20260504000950 13 245 8.0 17.7 0.00 0.00 0.00 41 1012.0
20260504000844 13 254 8.0 17.7 0.00 0.00 0.00 42 1012.0
20260504000744 13 242 8.0 17.7 0.00 0.00 0.00 41 1011.9
20260504000638 13 245 8.0 17.7 0.00 0.00 0.00 41 1011.9
20260504000555 13 236 8.0 17.7 0.00 0.00 0.00 41 1011.9
20260504000548 13 246 8.0 17.7 0.00 0.00 0.00 41 1011.9
20260504000331 13 233 8.0 17.7 0.00 0.00 0.00 41 1011.9
20260504000227 13 233 8.0 17.7 0.00 0.00 0.00 40 1011.9
20260504000127 13 240 8.0 17.7 0.00 0.00 0.00 40 1011.8
20260504000022 13 249 8.0 17.7 0.00 0.00 0.00 41 1011.9
20260503235919 13 258 8.0 17.7 0.00 0.00 0.00 40 1011.8
20260503235814 13 249 8.0 17.7 0.00 0.00 0.00 40 1011.8
20260503235714 13 244 8.0 17.7 0.00 0.00 0.00 40 1011.8
20260503235608 13 252 8.0 17.7 0.00 0.00 0.00 40 1011.8
20260503235525 13 245 8.0 16.1 0.00 0.00 0.00 40 1011.7
20260503235518 13 263 8.0 16.1 0.00 0.00 0.00 39 1011.8
20260503235304 13 247 8.0 16.1 0.00 0.00 0.00 40 1011.7
20260503235219 14 257 9.7 20.9 0.00 0.00 0.00 39 1011.7
20260503235211 14 244 9.7 20.9 0.00 0.00 0.00 39 1011.7
20260503235015 14 242 9.7 20.9 0.00 0.00 0.00 39 1011.7
20260503235007 14 225 9.7 20.9 0.00 0.00 0.00 39 1011.7
20260503234823 14 253 11.3 20.9 0.00 0.00 0.00 39 1011.7
20260503234819 14 252 12.9 20.9 0.00 0.00 0.00 38 1011.7
20260503234810 14 232 11.3 20.9 0.00 0.00 0.00 39 1011.7
20260503234439 14 259 12.9 20.9 0.00 0.00 0.00 38 1011.7
20260503234332 14 251 12.9 20.9 0.00 0.00 0.00 38 1011.6
20260503234250 14 267 12.9 20.9 0.00 0.00 0.00 38 1011.6
20260503234243 14 259 12.9 20.9 0.00 0.00 0.00 38 1011.7
20260503234044 14 300 12.9 27.4 0.00 0.00 0.00 37 1011.6
20260503234036 14 301 12.9 27.4 0.00 0.00 0.00 38 1011.6
20260503233820 14 265 11.3 27.4 0.00 0.00 0.00 37 1011.6
20260503233715 14 240 11.3 27.4 0.00 0.00 0.00 38 1011.6
20260503233632 14 252 11.3 27.4 0.00 0.00 0.00 37 1011.6
20260503233624 14 271 11.3 27.4 0.00 0.00 0.00 37 1011.6
20260503233408 14 249 11.3 27.4 0.00 0.00 0.00 39 1011.6
20260503233302 15 261 11.3 27.4 0.00 0.00 0.00 37 1011.6
20260503233202 15 256 11.3 27.4 0.00 0.00 0.00 37 1011.6
20260503233119 15 254 12.9 27.4 0.00 0.00 0.00 37 1011.6
20260503233111 15 269 12.9 27.4 0.00 0.00 0.00 37 1011.6
20260503232851 15 245 12.9 27.4 0.00 0.00 0.00 37 1011.6
20260503232750 15 280 12.9 27.4 0.00 0.00 0.00 37 1011.6
20260503232644 15 261 12.9 27.4 0.00 0.00 0.00 36 1011.6
20260503232601 15 252 12.9 27.4 0.00 0.00 0.00 37 1011.6
20260503232553 15 244 12.9 27.4 0.00 0.00 0.00 37 1011.6
20260503232338 15 244 12.9 27.4 0.00 0.00 0.00 36 1011.5
20260503232315 15 224 12.9 24.1 0.00 0.00 0.00 36 1011.6
20260503232305 15 188 12.9 27.4 0.00 0.00 0.00 37 1011.6
20260503232144 15 277 12.9 27.4 0.00 0.00 0.00 36 1011.6
20260503231926 15 226 12.9 25.7 0.00 0.00 0.00 36 1011.6
20260503231821 15 325 12.9 25.7 0.00 0.00 0.00 36 1011.5
20260503231720 15 237 12.9 25.7 0.00 0.00 0.00 36 1011.6
20260503231653 15 259 12.9 25.7 0.00 0.00 0.00 37 1011.5
20260503231643 15 248 12.9 25.7 0.00 0.00 0.00 37 1011.6
20260503231523 15 270 12.9 25.7 0.00 0.00 0.00 36 1011.5
20260503231308 15 244 12.9 25.7 0.00 0.00 0.00 37 1011.5
20260503231202 15 260 12.9 25.7 0.00 0.00 0.00 37 1011.5
20260503231102 15 240 12.9 25.7 0.00 0.00 0.00 36 1011.5
20260503230957 15 251 14.5 25.7 0.00 0.00 0.00 36 1011.5
20260503230856 15 257 14.5 25.7 0.00 0.00 0.00 37 1011.6
20260503230828 15 239 14.5 25.7 0.00 0.00 0.00 36 1011.6
20260503230823 15 267 14.5 25.7 0.00 0.00 0.00 35 1011.5
20260503230815 15 267 14.5 25.7 0.00 0.00 0.00 36 1011.6
20260503230444 15 221 12.9 25.7 0.00 0.00 0.00 36 1011.5
20260503230338 15 258 12.9 25.7 0.00 0.00 0.00 35 1011.5
20260503230238 15 221 12.9 30.6 0.00 0.00 0.00 36 1011.6
20260503230133 15 247 12.9 30.6 0.00 0.00 0.00 36 1011.5
20260503230032 15 298 12.9 30.6 0.00 0.00 0.00 35 1011.5
20260503225927 15 202 11.3 30.6 0.00 0.00 0.00 37 1011.6
20260503225826 15 252 11.3 30.6 0.00 0.00 0.00 36 1011.5
20260503225720 15 259 11.3 30.6 0.00 0.00 0.00 36 1011.5
20260503225620 15 248 12.9 30.6 0.00 0.00 0.00 36 1011.5
20260503225515 15 281 12.9 30.6 0.00 0.00 0.00 36 1011.5
20260503225414 15 232 12.9 30.6 0.00 0.00 0.00 35 1011.5
20260503225309 15 235 14.5 30.6 0.00 0.00 0.00 35 1011.5
20260503225208 15 232 12.9 30.6 0.00 0.00 0.00 35 1011.5
20260503225102 15 244 12.9 30.6 0.00 0.00 0.00 35 1011.5
20260503225019 15 278 11.3 30.6 0.00 0.00 0.00 36 1011.6
20260503225012 15 230 12.9 30.6 0.00 0.00 0.00 36 1011.5
20260503224836 15 279 11.3 30.6 0.00 0.00 0.00 35 1011.5
20260503224831 16 240 11.3 30.6 0.00 0.00 0.00 37 1011.5
20260503224821 15 228 11.3 30.6 0.00 0.00 0.00 35 1011.4
20260503224445 16 275 11.3 30.6 0.00 0.00 0.00 36 1011.5
20260503224344 16 277 11.3 30.6 0.00 0.00 0.00 36 1011.5
20260503224238 16 246 11.3 29.0 0.00 0.00 0.00 36 1011.5
20260503224138 16 290 12.9 29.0 0.00 0.00 0.00 36 1011.5
20260503224056 16 329 16.1 29.0 0.00 0.00 0.00 36 1011.5
20260503224048 16 275 14.5 29.0 0.00 0.00 0.00 36 1011.5
20260503223826 16 259 16.1 29.0 0.00 0.00 0.00 35 1011.5
20260503223726 16 259 16.1 29.0 0.00 0.00 0.00 34 1011.5
20260503223621 16 252 16.1 29.0 0.00 0.00 0.00 34 1011.5
20260503223520 16 289 16.1 29.0 0.00 0.00 0.00 36 1011.5
20260503223438 16 260 16.1 29.0 0.00 0.00 0.00 35 1011.5
20260503223431 16 290 16.1 29.0 0.00 0.00 0.00 35 1011.5
20260503223231 16 262 14.5 27.4 0.00 0.00 0.00 34 1011.5
20260503223224 16 261 14.5 27.4 0.00 0.00 0.00 36 1011.5
20260503223002 16 248 12.9 27.4 0.00 0.00 0.00 36 1011.5
20260503222903 16 261 12.9 27.4 0.00 0.00 0.00 36 1011.6
20260503222756 16 302 11.3 20.9 0.00 0.00 0.00 37 1011.6
20260503222656 16 286 11.3 30.6 0.00 0.00 0.00 37 1011.5
20260503222550 16 311 11.3 30.6 0.00 0.00 0.00 35 1011.5
20260503222451 16 279 9.7 30.6 0.00 0.00 0.00 35 1011.5
20260503222427 16 290 12.9 30.6 0.00 0.00 0.00 36 1011.5
20260503222422 16 251 9.7 30.6 0.00 0.00 0.00 37 1011.5
20260503222417 16 286 11.3 30.6 0.00 0.00 0.00 37 1011.5
20260503222408 16 261 9.7 30.6 0.00 0.00 0.00 37 1011.5
20260503222237 16 261 9.7 30.6 0.00 0.00 0.00 36 1011.5
20260503222125 16 329 12.9 30.6 0.00 0.00 0.00 36 1011.5
20260503222114 16 342 9.7 30.6 0.00 0.00 0.00 36 1011.5
20260503221626 16 274 14.5 30.6 0.00 0.00 0.00 35 1011.5
20260503221521 16 259 14.5 30.6 0.00 0.00 0.00 36 1011.5
20260503221420 16 265 14.5 30.6 0.00 0.00 0.00 35 1011.5
20260503221315 16 329 14.5 30.6 0.00 0.00 0.00 35 1011.5
20260503221214 16 324 14.5 30.6 0.00 0.00 0.00 35 1011.5
20260503221131 16 288 14.5 30.6 0.00 0.00 0.00 36 1011.6
20260503221124 16 303 14.5 30.6 0.00 0.00 0.00 35 1011.5
20260503220902 16 325 14.5 30.6 0.00 0.00 0.00 35 1011.5
20260503220819 16 217 12.9 25.7 0.00 0.00 0.00 35 1011.4
20260503220812 16 295 12.9 30.6 0.00 0.00 0.00 35 1011.6
20260503220556 16 258 11.3 25.7 0.00 0.00 0.00 34 1011.5
20260503220451 16 281 11.3 25.7 0.00 0.00 0.00 34 1011.5
20260503220350 16 252 11.3 25.7 0.00 0.00 0.00 34 1011.5
20260503220308 16 273 11.3 25.7 0.00 0.00 0.00 35 1011.6
20260503220301 16 277 11.3 25.7 0.00 0.00 0.00 34 1011.6
20260503220038 16 341 11.3 25.7 0.00 0.00 0.00 36 1011.5
20260503215939 16 277 11.3 25.7 0.00 0.00 0.00 37 1011.6
20260503215832 16 264 11.3 25.7 0.00 0.00 0.00 35 1011.6
20260503215732 16 223 12.9 20.9 0.00 0.00 0.00 35 1011.5
20260503215627 16 228 12.9 32.2 0.00 0.00 0.00 36 1011.6
20260503215526 16 296 14.5 32.2 0.00 0.00 0.00 36 1011.5
20260503215420 16 266 14.5 32.2 0.00 0.00 0.00 37 1011.5
20260503215320 16 269 16.1 32.2 0.00 0.00 0.00 35 1011.5
20260503215214 16 268 16.1 32.2 0.00 0.00 0.00 36 1011.6
20260503215114 16 248 16.1 32.2 0.00 0.00 0.00 36 1011.6
20260503215008 16 245 16.1 32.2 0.00 0.00 0.00 37 1011.5
20260503214908 16 277 16.1 32.2 0.00 0.00 0.00 35 1011.5
20260503214802 16 275 16.1 32.2 0.00 0.00 0.00 35 1011.5
20260503214702 16 243 14.5 35.4 0.00 0.00 0.00 35 1011.6
20260503214557 16 235 14.5 35.4 0.00 0.00 0.00 34 1011.5
20260503214456 16 222 12.9 35.4 0.00 0.00 0.00 35 1011.5
20260503214351 16 259 12.9 35.4 0.00 0.00 0.00 36 1011.6
20260503214251 16 237 12.9 35.4 0.00 0.00 0.00 36 1011.5
20260503214144 16 313 12.9 35.4 0.00 0.00 0.00 35 1011.5
20260503214044 16 276 12.9 35.4 0.00 0.00 0.00 35 1011.5
20260503213938 16 263 12.9 35.4 0.00 0.00 0.00 35 1011.5
20260503213838 16 302 14.5 35.4 0.00 0.00 0.00 35 1011.5
20260503213755 16 238 14.5 35.4 0.00 0.00 0.00 35 1011.6
20260503213748 16 249 14.5 35.4 0.00 0.00 0.00 35 1011.4
20260503213526 16 222 14.5 35.4 0.00 0.00 0.00 35 1011.5
20260503213426 16 225 14.5 35.4 0.00 0.00 0.00 36 1011.5
20260503213320 16 259 16.1 35.4 0.00 0.00 0.00 39 1011.5
20260503213220 16 270 16.1 35.4 0.00 0.00 0.00 38 1011.4
20260503213114 16 243 16.1 35.4 0.00 0.00 0.00 37 1011.4
20260503213014 16 239 17.7 35.4 0.00 0.00 0.00 36 1011.4
20260503212909 16 227 16.1 35.4 0.00 0.00 0.00 36 1011.5
20260503212808 16 306 16.1 35.4 0.00 0.00 0.00 35 1011.5
20260503212724 16 275 12.9 33.8 0.00 0.00 0.00 38 1011.4
20260503212717 16 255 14.5 30.6 0.00 0.00 0.00 36 1011.4
20260503212457 16 296 14.5 33.8 0.00 0.00 0.00 34 1011.4
20260503212356 16 245 14.5 33.8 0.00 0.00 0.00 36 1011.5
20260503212250 16 263 12.9 33.8 0.00 0.00 0.00 35 1011.5
20260503212208 16 286 14.5 33.8 0.00 0.00 0.00 37 1011.5
20260503212201 16 331 12.9 33.8 0.00 0.00 0.00 35 1011.5
20260503211944 16 276 14.5 33.8 0.00 0.00 0.00 35 1011.5
20260503211839 16 223 14.5 33.8 0.00 0.00 0.00 36 1011.4
20260503211738 16 286 16.1 33.8 0.00 0.00 0.00 37 1011.4
20260503211655 16 248 16.1 33.8 0.00 0.00 0.00 36 1011.4
20260503211647 16 269 16.1 33.8 0.00 0.00 0.00 36 1011.5
20260503211426 16 290 16.1 33.8 0.00 0.00 0.00 36 1011.4
20260503211326 16 308 16.1 33.8 0.00 0.00 0.00 36 1011.4
20260503211220 16 198 16.1 33.8 0.00 0.00 0.00 36 1011.5
20260503211119 16 265 16.1 33.8 0.00 0.00 0.00 36 1011.4
20260503211014 16 257 17.7 33.8 0.00 0.00 0.00 37 1011.5
20260503210914 16 275 17.7 33.8 0.00 0.00 0.00 38 1011.4
20260503210808 16 276 17.7 33.8 0.00 0.00 0.00 35 1011.4
20260503210725 16 257 16.1 32.2 0.00 0.00 0.00 36 1011.4
20260503210718 16 263 17.7 33.8 0.00 0.00 0.00 36 1011.5
20260503210503 16 279 16.1 32.2 0.00 0.00 0.00 34 1011.4
20260503210357 16 252 16.1 32.2 0.00 0.00 0.00 36 1011.4
20260503210256 16 275 14.5 40.2 0.00 0.00 0.00 35 1011.5
20260503210151 16 271 14.5 40.2 0.00 0.00 0.00 37 1011.6
20260503210050 16 291 14.5 40.2 0.00 0.00 0.00 37 1011.6
20260503205945 16 318 12.9 40.2 0.00 0.00 0.00 39 1011.6
20260503205844 16 0 12.9 40.2 0.00 0.00 0.00 39 1011.5
20260503205738 16 329 12.9 40.2 0.00 0.00 0.00 38 1011.5
20260503205638 16 271 14.5 40.2 0.00 0.00 0.00 37 1011.4
20260503205532 16 233 14.5 40.2 0.00 0.00 0.00 36 1011.4
20260503205434 16 276 16.1 40.2 0.00 0.00 0.00 35 1011.5
20260503205427 16 248 16.1 40.2 0.00 0.00 0.00 36 1011.5
20260503205423 16 258 17.7 40.2 0.00 0.00 0.00 35 1011.5
20260503205410 16 281 17.7 40.2 0.00 0.00 0.00 36 1011.5
20260503205251 16 281 17.7 40.2 0.00 0.00 0.00 35 1011.5
20260503204915 16 199 16.1 40.2 0.00 0.00 0.00 37 1011.5
20260503204814 16 275 16.1 40.2 0.00 0.00 0.00 37 1011.5
20260503204708 16 260 16.1 40.2 0.00 0.00 0.00 36 1011.5
20260503204608 16 266 16.1 40.2 0.00 0.00 0.00 35 1011.5
20260503204502 16 238 17.7 40.2 0.00 0.00 0.00 37 1011.5
20260503204420 16 275 14.5 33.8 0.00 0.00 0.00 36 1011.5
20260503204412 16 260 16.1 40.2 0.00 0.00 0.00 37 1011.6
20260503204156 16 230 14.5 29.0 0.00 0.00 0.00 37 1011.5
20260503204051 16 306 14.5 29.0 0.00 0.00 0.00 36 1011.4
20260503203949 16 284 14.5 30.6 0.00 0.00 0.00 37 1011.4
20260503203908 16 269 16.1 32.2 0.00 0.00 0.00 37 1011.4
20260503203859 16 269 14.5 30.6 0.00 0.00 0.00 38 1011.4
20260503203701 16 291 14.5 32.2 0.00 0.00 0.00 38 1011.5
20260503203653 16 306 16.1 32.2 0.00 0.00 0.00 36 1011.5
20260503203432 16 309 16.1 32.2 0.00 0.00 0.00 37 1011.5
20260503203332 16 277 16.1 32.2 0.00 0.00 0.00 37 1011.4
20260503203227 16 269 16.1 32.2 0.00 0.00 0.00 37 1011.4
20260503203126 15 259 14.5 32.2 0.00 0.00 0.00 38 1011.5
20260503203021 15 292 12.9 32.2 0.00 0.00 0.00 36 1011.6
20260503202920 15 273 14.5 32.2 0.00 0.00 0.00 37 1011.5
20260503202837 16 255 16.1 33.8 0.00 0.00 0.00 36 1011.5
20260503202830 15 268 14.5 32.2 0.00 0.00 0.00 36 1011.5
20260503202632 16 221 14.5 33.8 0.00 0.00 0.00 35 1011.5
20260503202625 16 234 14.5 33.8 0.00 0.00 0.00 35 1011.5
20260503202402 16 215 16.1 33.8 0.00 0.00 0.00 36 1011.5
20260503202304 16 252 16.1 33.8 0.00 0.00 0.00 36 1011.6
20260503202219 16 303 17.7 33.8 0.00 0.00 0.00 36 1011.6
20260503202211 16 276 17.7 33.8 0.00 0.00 0.00 37 1011.6
20260503201950 16 279 19.3 33.8 0.00 0.00 0.00 36 1011.7
20260503201850 16 282 19.3 33.8 0.00 0.00 0.00 36 1011.7
20260503201745 16 257 17.7 32.2 0.00 0.00 0.00 36 1011.8
20260503201644 16 257 16.1 32.2 0.00 0.00 0.00 36 1011.7
20260503201538 16 288 16.1 32.2 0.00 0.00 0.00 36 1011.6
20260503201438 16 269 14.5 32.2 0.00 0.00 0.00 36 1011.8
20260503201332 16 306 14.5 30.6 0.00 0.00 0.00 37 1011.7
20260503201232 16 193 14.5 30.6 0.00 0.00 0.00 36 1011.7
20260503201127 16 261 14.5 29.0 0.00 0.00 0.00 37 1011.7
20260503201026 16 245 14.5 30.6 0.00 0.00 0.00 37 1011.6
20260503200943 16 324 14.5 30.6 0.00 0.00 0.00 36 1011.7
20260503200936 16 324 14.5 30.6 0.00 0.00 0.00 38 1011.6
20260503200714 16 304 16.1 30.6 0.00 0.00 0.00 37 1011.7
20260503200614 16 293 14.5 30.6 0.00 0.00 0.00 37 1011.8
20260503200509 16 266 14.5 30.6 0.00 0.00 0.00 37 1011.8
20260503200408 16 273 14.5 30.6 0.00 0.00 0.00 36 1011.7
20260503200303 16 311 14.5 30.6 0.00 0.00 0.00 36 1011.8
20260503200202 16 298 14.5 30.6 0.00 0.00 0.00 39 1011.7
20260503200056 16 280 14.5 30.6 0.00 0.00 0.00 36 1011.9
20260503200015 16 309 16.1 30.6 0.00 0.00 0.00 35 1011.8
20260503200008 16 291 14.5 30.6 0.00 0.00 0.00 36 1011.9
20260503195952 16 285 14.5 30.6 0.00 0.00 0.00 36 1011.8
20260503195833 16 277 12.9 30.6 0.00 0.00 0.00 36 1011.8
20260503195719 16 294 16.1 30.6 0.00 0.00 0.00 34 1011.8
20260503195709 16 290 12.9 30.6 0.00 0.00 0.00 36 1011.8
20260503195338 16 244 14.5 30.6 0.00 0.00 0.00 35 1011.8
20260503195255 16 244 12.9 37.0 0.00 0.00 0.00 38 1011.8
20260503195247 16 255 14.5 30.6 0.00 0.00 0.00 36 1011.8
20260503195026 16 287 12.9 37.0 0.00 0.00 0.00 35 1011.8
20260503194926 16 176 12.9 37.0 0.00 0.00 0.00 34 1011.9
20260503194820 16 240 12.9 37.0 0.00 0.00 0.00 35 1012.0
20260503194720 16 248 12.9 37.0 0.00 0.00 0.00 35 1011.9
20260503194615 16 249 12.9 37.0 0.00 0.00 0.00 37 1011.9
20260503194514 16 294 12.9 37.0 0.00 0.00 0.00 41 1012.0
20260503194450 16 257 14.5 37.0 0.00 0.00 0.00 37 1012.0
20260503194444 16 244 14.5 37.0 0.00 0.00 0.00 40 1012.0
20260503194434 16 273 12.9 37.0 0.00 0.00 0.00 37 1011.9
20260503194102 16 271 16.1 37.0 0.00 0.00 0.00 38 1011.9
20260503194018 16 233 17.7 37.0 0.00 0.00 0.00 39 1011.9
20260503194011 16 275 17.7 37.0 0.00 0.00 0.00 37 1011.9
20260503193750 15 273 17.7 37.0 0.00 0.00 0.00 35 1012.0
20260503193650 16 217 19.3 37.0 0.00 0.00 0.00 35 1012.0
20260503193544 16 259 19.3 37.0 0.00 0.00 0.00 35 1012.1
20260503193444 16 230 17.7 37.0 0.00 0.00 0.00 41 1012.1
20260503193339 16 242 17.7 37.0 0.00 0.00 0.00 41 1012.1
20260503193238 15 298 16.1 37.0 0.00 0.00 0.00 37 1012.0
20260503193132 15 279 14.5 32.2 0.00 0.00 0.00 36 1011.9
20260503193050 16 227 16.1 32.2 0.00 0.00 0.00 34 1012.0
20260503193043 16 238 16.1 32.2 0.00 0.00 0.00 36 1012.1
20260503192826 16 243 16.1 32.2 0.00 0.00 0.00 36 1012.0
20260503192720 16 244 14.5 32.2 0.00 0.00 0.00 37 1012.0
20260503192621 16 257 16.1 32.2 0.00 0.00 0.00 37 1012.1
20260503192541 16 279 16.1 32.2 0.00 0.00 0.00 40 1012.2
20260503192536 16 319 16.1 32.2 0.00 0.00 0.00 37 1012.2
20260503192529 16 315 16.1 32.2 0.00 0.00 0.00 41 1012.1
20260503192514 16 309 16.1 32.2 0.00 0.00 0.00 38 1012.0
20260503192239 16 277 17.7 32.2 0.00 0.00 0.00 38 1012.1
20260503192119 16 276 17.7 32.2 0.00 0.00 0.00 40 1012.3
20260503191856 15 242 16.1 32.2 0.00 0.00 0.00 40 1012.2
20260503191813 15 270 17.7 32.2 0.00 0.00 0.00 36 1012.2
20260503191806 15 306 16.1 32.2 0.00 0.00 0.00 38 1012.2
20260503191550 15 281 16.1 32.2 0.00 0.00 0.00 37 1012.2
20260503191444 15 261 16.1 29.0 0.00 0.00 0.00 39 1012.3
20260503191344 15 320 16.1 29.0 0.00 0.00 0.00 37 1012.3
20260503191317 15 279 16.1 29.0 0.00 0.00 0.00 36 1012.2
20260503191311 15 331 16.1 29.0 0.00 0.00 0.00 36 1012.3
20260503191303 15 333 16.1 29.0 0.00 0.00 0.00 37 1012.2
20260503190932 15 254 16.1 29.0 0.00 0.00 0.00 38 1012.3
20260503190826 15 310 14.5 32.2 0.00 0.00 0.00 39 1012.3
20260503190725 15 306 14.5 32.2 0.00 0.00 0.00 38 1012.3
20260503190620 15 312 14.5 32.2 0.00 0.00 0.00 37 1012.4
20260503190520 15 14 14.5 32.2 0.00 0.00 0.00 38 1012.4
20260503190414 15 250 16.1 32.2 0.00 0.00 0.00 39 1012.5
20260503190314 15 281 14.5 32.2 0.00 0.00 0.00 37 1012.3
20260503190209 15 227 14.5 32.2 0.00 0.00 0.00 37 1012.4
20260503190108 15 284 16.1 32.2 0.00 0.00 0.00 38 1012.4
20260503190003 15 306 16.1 32.2 0.00 0.00 0.00 40 1012.4
20260503185902 15 290 16.1 32.2 0.00 0.00 0.00 36 1012.4
20260503185756 15 263 16.1 32.2 0.00 0.00 0.00 36 1012.4
20260503185713 15 240 16.1 32.2 0.00 0.00 0.00 36 1012.4
20260503185706 15 269 16.1 32.2 0.00 0.00 0.00 37 1012.4
20260503185450 15 236 16.1 32.2 0.00 0.00 0.00 36 1012.5
20260503185407 15 268 14.5 32.2 0.00 0.00 0.00 39 1012.6
20260503185400 15 264 16.1 32.2 0.00 0.00 0.00 39 1012.6
20260503185138 15 270 14.5 32.2 0.00 0.00 0.00 36 1012.7
20260503185037 15 215 14.5 32.2 0.00 0.00 0.00 37 1012.6
20260503184932 15 267 16.1 32.2 0.00 0.00 0.00 37 1012.6
20260503184833 15 303 16.1 32.2 0.00 0.00 0.00 36 1012.7
20260503184727 15 267 16.1 32.2 0.00 0.00 0.00 36 1012.5
20260503184643 15 337 16.1 32.2 0.00 0.00 0.00 38 1012.7
20260503184636 15 309 16.1 32.2 0.00 0.00 0.00 36 1012.5
20260503184420 15 269 16.1 32.2 0.00 0.00 0.00 39 1012.7
20260503184338 15 277 17.7 32.2 0.00 0.00 0.00 40 1012.8
20260503184330 15 274 17.7 32.2 0.00 0.00 0.00 42 1012.7
20260503184109 15 311 17.7 32.2 0.00 0.00 0.00 40 1012.7
20260503184008 15 331 16.1 32.2 0.00 0.00 0.00 38 1012.8
20260503183902 15 302 16.1 32.2 0.00 0.00 0.00 39 1012.8
20260503183802 15 247 17.7 29.0 0.00 0.00 0.00 40 1012.8
20260503183656 15 294 17.7 29.0 0.00 0.00 0.00 38 1012.9
20260503183556 15 309 17.7 29.0 0.00 0.00 0.00 38 1012.8
20260503183513 15 268 17.7 27.4 0.00 0.00 0.00 38 1012.9
20260503183505 15 244 17.7 27.4 0.00 0.00 0.00 37 1012.8
20260503183244 14 211 17.7 27.4 0.00 0.00 0.00 39 1012.8
20260503183144 14 263 17.7 27.4 0.00 0.00 0.00 37 1012.8
20260503183039 14 250 17.7 27.4 0.00 0.00 0.00 39 1012.9
20260503182938 14 244 16.1 27.4 0.00 0.00 0.00 37 1013.0
20260503182832 14 259 16.1 33.8 0.00 0.00 0.00 37 1012.9
20260503182731 14 277 16.1 33.8 0.00 0.00 0.00 39 1012.9
20260503182626 14 247 16.1 33.8 0.00 0.00 0.00 39 1012.8
20260503182526 14 280 16.1 33.8 0.00 0.00 0.00 38 1012.9
20260503182426 15 279 19.3 33.8 0.00 0.00 0.00 37 1012.9
20260503182421 14 279 16.1 33.8 0.00 0.00 0.00 38 1012.9
20260503182406 14 292 16.1 33.8 0.00 0.00 0.00 40 1012.9
20260503182245 14 306 16.1 33.8 0.00 0.00 0.00 37 1013.0
20260503182128 15 268 19.3 33.8 0.00 0.00 0.00 37 1012.9
20260503182121 14 316 16.1 33.8 0.00 0.00 0.00 38 1012.9
20260503182106 14 290 17.7 33.8 0.00 0.00 0.00 38 1012.9
20260503181953 14 272 19.3 33.8 0.00 0.00 0.00 39 1013.0
20260503181942 14 246 17.7 33.8 0.00 0.00 0.00 37 1012.9
20260503181458 14 259 19.3 33.8 0.00 0.00 0.00 39 1013.0
20260503181414 14 281 19.3 33.8 0.00 0.00 0.00 39 1013.0
20260503181407 14 302 19.3 33.8 0.00 0.00 0.00 38 1013.0
20260503181143 14 286 17.7 35.4 0.00 0.00 0.00 40 1013.0
20260503181044 14 246 16.1 35.4 0.00 0.00 0.00 36 1012.7
20260503180938 14 213 16.1 35.4 0.00 0.00 0.00 36 1012.9
20260503180838 14 236 14.5 35.4 0.00 0.00 0.00 37 1012.9
20260503180733 14 235 14.5 35.4 0.00 0.00 0.00 36 1012.9
20260503180632 14 259 12.9 35.4 0.00 0.00 0.00 38 1012.9
20260503180527 14 247 12.9 35.4 0.00 0.00 0.00 39 1013.0
20260503180427 14 261 12.9 35.4 0.00 0.00 0.00 41 1013.0
20260503180320 14 292 14.5 35.4 0.00 0.00 0.00 45 1012.9
20260503180220 14 263 16.1 35.4 0.00 0.00 0.00 44 1013.0
20260503180156 13 304 16.1 35.4 0.00 0.00 0.00 39 1013.0
20260503180145 13 295 16.1 35.4 0.00 0.00 0.00 43 1013.0
20260503180024 13 307 16.1 35.4 0.00 0.00 0.00 39 1013.1
20260503175825 13 279 17.7 35.4 0.00 0.00 0.00 38 1013.0
20260503175818 13 248 17.7 35.4 0.00 0.00 0.00 38 1013.0
20260503175620 14 242 19.3 35.4 0.00 0.00 0.00 37 1013.1
20260503175612 13 291 17.7 35.4 0.00 0.00 0.00 37 1013.1
20260503175356 14 255 17.7 35.4 0.00 0.00 0.00 37 1013.1
20260503175251 14 236 17.7 35.4 0.00 0.00 0.00 40 1013.0
20260503175150 14 245 16.1 35.4 0.00 0.00 0.00 39 1012.9
20260503175045 14 284 16.1 35.4 0.00 0.00 0.00 39 1013.0
20260503175001 14 275 16.1 35.4 0.00 0.00 0.00 40 1013.0
20260503174954 13 202 16.1 35.4 0.00 0.00 0.00 39 1013.0
20260503174738 14 248 16.1 32.2 0.00 0.00 0.00 38 1013.1
20260503174633 14 278 14.5 30.6 0.00 0.00 0.00 38 1013.1
20260503174532 14 212 14.5 30.6 0.00 0.00 0.00 39 1013.1
20260503174427 14 223 14.5 30.6 0.00 0.00 0.00 41 1013.2
20260503174326 14 231 14.5 30.6 0.00 0.00 0.00 45 1013.1
20260503174220 13 270 16.1 30.6 0.00 0.00 0.00 45 1013.2
20260503174121 13 277 16.1 32.2 0.00 0.00 0.00 41 1013.1
20260503174014 13 207 16.1 32.2 0.00 0.00 0.00 39 1013.2
20260503173914 13 259 16.1 32.2 0.00 0.00 0.00 39 1013.2
20260503173847 13 230 16.1 35.4 0.00 0.00 0.00 39 1013.3
20260503173837 13 248 16.1 32.2 0.00 0.00 0.00 39 1013.2
20260503173718 13 242 16.1 32.2 0.00 0.00 0.00 39 1013.2
20260503173502 13 217 16.1 35.4 0.00 0.00 0.00 40 1013.3
20260503173357 13 211 16.1 35.4 0.00 0.00 0.00 38 1013.3
20260503173255 13 264 16.1 35.4 0.00 0.00 0.00 39 1013.2
20260503173150 13 241 16.1 35.4 0.00 0.00 0.00 40 1013.1
20260503173050 13 248 16.1 35.4 0.00 0.00 0.00 40 1013.1
20260503172945 13 223 16.1 35.4 0.00 0.00 0.00 41 1013.2
20260503172844 13 211 17.7 35.4 0.00 0.00 0.00 44 1013.2
20260503172739 13 255 17.7 35.4 0.00 0.00 0.00 43 1013.3
20260503172638 13 281 17.7 35.4 0.00 0.00 0.00 42 1013.2
20260503172532 13 221 17.7 35.4 0.00 0.00 0.00 40 1013.2
20260503172510 13 309 17.7 35.4 0.00 0.00 0.00 42 1013.3
20260503172506 13 336 19.3 35.4 0.00 0.00 0.00 38 1013.3
20260503172456 13 316 17.7 35.4 0.00 0.00 0.00 42 1013.3
20260503172120 13 308 19.3 35.4 0.00 0.00 0.00 40 1013.3
20260503172020 13 5 19.3 35.4 0.00 0.00 0.00 41 1013.2
20260503171915 13 300 19.3 35.4 0.00 0.00 0.00 43 1013.3
20260503171814 13 292 17.7 35.4 0.00 0.00 0.00 41 1013.2
20260503171709 13 279 16.1 35.4 0.00 0.00 0.00 41 1013.4
20260503171608 13 250 17.7 30.6 0.00 0.00 0.00 40 1013.3
20260503171502 13 274 17.7 30.6 0.00 0.00 0.00 39 1013.3
20260503171402 13 263 17.7 30.6 0.00 0.00 0.00 40 1013.4
20260503171319 13 337 17.7 30.6 0.00 0.00 0.00 40 1013.5
20260503171311 13 245 17.7 30.6 0.00 0.00 0.00 42 1013.4
20260503171051 13 229 17.7 30.6 0.00 0.00 0.00 43 1013.3
20260503171008 13 230 17.7 30.6 0.00 0.00 0.00 44 1013.4
20260503171000 13 240 17.7 30.6 0.00 0.00 0.00 44 1013.4
20260503170744 13 244 17.7 35.4 0.00 0.00 0.00 42 1013.4
20260503170638 13 306 17.7 35.4 0.00 0.00 0.00 41 1013.4
20260503170538 13 333 16.1 35.4 0.00 0.00 0.00 43 1013.4
20260503170432 13 261 14.5 35.4 0.00 0.00 0.00 44 1013.4
20260503170332 13 302 14.5 35.4 0.00 0.00 0.00 41 1013.5
20260503170226 13 252 14.5 35.4 0.00 0.00 0.00 42 1013.4
20260503170126 13 258 14.5 35.4 0.00 0.00 0.00 44 1013.4
20260503160132 11 277 16.1 29.0 0.00 0.00 0.00 48 1014.3
20260503151008 11 313 12.9 32.2 0.00 0.00 0.00 45 1014.3
20260503150902 10 235 12.9 32.2 0.00 0.00 0.00 45 1014.3
20260503150803 10 255 14.5 32.2 0.00 0.00 0.00 48 1014.3
20260503150719 10 299 16.1 32.2 0.00 0.00 0.00 44 1014.3
20260503150711 10 309 14.5 32.2 0.00 0.00 0.00 47 1014.3
20260503150513 10 269 16.1 32.2 0.00 0.00 0.00 44 1014.4
20260503150505 10 277 16.1 32.2 0.00 0.00 0.00 45 1014.4
20260503150245 10 258 16.1 32.2 0.00 0.00 0.00 47 1014.4
20260503150145 10 277 14.5 32.2 0.00 0.00 0.00 44 1014.4
20260503150120 10 244 12.9 32.2 0.00 0.00 0.00 45 1014.5
20260503150108 10 244 14.5 32.2 0.00 0.00 0.00 45 1014.4
20260503140255 8 319 16.1 30.6 0.00 0.00 0.00 49 1014.6
20260503140150 8 338 16.1 30.6 0.00 0.00 0.00 49 1014.7
20260503131333 7 315 14.5 25.7 0.00 0.00 0.00 59 1014.9
20260503131311 7 292 11.3 25.7 0.00 0.00 0.00 57 1014.9
20260503131301 7 321 12.9 25.7 0.00 0.00 0.00 59 1014.9
20260503131142 7 313 12.9 25.7 0.00 0.00 0.00 58 1014.9
20260503130920 7 304 9.7 25.7 0.00 0.00 0.00 57 1014.9
20260503130820 7 333 9.7 25.7 0.00 0.00 0.00 58 1014.9
20260503130714 7 348 9.7 25.7 0.00 0.00 0.00 59 1015.0
20260503130631 7 296 11.3 25.7 0.00 0.00 0.00 59 1014.8
20260503130624 7 269 9.7 25.7 0.00 0.00 0.00 58 1014.8
20260503130408 7 288 11.3 25.7 0.00 0.00 0.00 61 1014.8
20260503130302 7 259 12.9 25.7 0.00 0.00 0.00 60 1014.8
20260503130202 7 12 12.9 25.7 0.00 0.00 0.00 60 1014.8
20260503130120 7 345 14.5 25.7 0.00 0.00 0.00 58 1014.9
20260503130112 7 21 14.5 25.7 0.00 0.00 0.00 60 1014.9
20260503120208 6 329 12.9 30.6 0.00 0.00 0.00 63 1014.7
20260503110732 5 311 12.9 24.1 0.00 0.00 0.00 66 1013.9
20260503110632 5 308 12.9 24.1 0.00 0.00 0.00 66 1014.0
20260503110526 5 293 12.9 24.1 0.00 0.00 0.00 66 1014.0
20260503110426 5 299 11.3 24.1 0.00 0.00 0.00 67 1013.9
20260503110320 5 274 11.3 24.1 0.00 0.00 0.00 67 1013.9
20260503110258 4 309 9.7 20.9 0.00 0.00 0.00 67 1013.9
20260503110254 4 307 9.7 20.9 0.00 0.00 0.00 67 1013.9
20260503110245 5 316 9.7 20.9 0.00 0.00 0.00 67 1013.9